This is the latest recevied weather packets stored in our database for station/object I1SXT-13. If no packets are shown the sender has not sent any weather packets the latest 10 day(s).
| Time | Temp. | Humidity | Pressure | Rain* | Wind** | Luminosity | Snow |
|---|---|---|---|---|---|---|---|
| 1777731567 | 22.78° C | 36% | 1024 hPa | 0 mm | - | - | - |
| 1777731270 | 23.33° C | 36% | 1023.9 hPa | 0 mm | - | - | - |
| 1777730966 | 23.33° C | 41% | 1024.1 hPa | 0 mm | - | - | - |
| 1777730365 | 23.33° C | 38% | 1023.9 hPa | 0 mm | - | - | - |
| 1777730067 | 23.33° C | 38% | 1023.9 hPa | 0 mm | - | - | - |
| 1777729770 | 23.33° C | 36% | 1023.8 hPa | 0 mm | - | - | - |
| 1777729466 | 22.78° C | 37% | 1025 hPa | 0 mm | - | - | - |
| 1777729169 | 23.33° C | 38% | 1025.3 hPa | 0 mm | - | - | - |
| 1777728865 | 22.78° C | 34% | 1024.3 hPa | 0 mm | - | - | - |
| 1777728567 | 22.78° C | 39% | 1024.8 hPa | 0 mm | - | - | - |
| 1777728263 | 23.33° C | 37% | 1025 hPa | 0 mm | - | - | - |
| 1777727966 | 23.89° C | 38% | 1025.7 hPa | 0 mm | - | - | - |
| 1777727669 | 23.33° C | 39% | 1025.3 hPa | 0 mm | - | - | - |
| 1777727365 | 23.33° C | 37% | 1024.6 hPa | 0 mm | - | - | - |
| 1777727068 | 22.78° C | 40% | 1025.1 hPa | 0 mm | - | - | - |
| 1777726764 | 22.78° C | 36% | 1025.2 hPa | 0 mm | - | - | - |
| 1777726467 | 22.78° C | 39% | 1025.3 hPa | 0 mm | - | - | - |
| 1777726169 | 22.22° C | 38% | 1025.8 hPa | 0 mm | - | - | - |
| 1777725865 | 22.22° C | 37% | 1025.5 hPa | 0 mm | - | - | - |
| 1777725568 | 22.22° C | 36% | 1025.6 hPa | 0 mm | - | - | - |
| 1777724670 | 22.22° C | 41% | 1025.6 hPa | 0 mm | - | - | - |
| 1777724366 | 22.22° C | 39% | 1024.9 hPa | 0 mm | - | - | - |
| 1777723467 | 22.22° C | 38% | 1025.2 hPa | 0 mm | - | - | - |
| 1777723163 | 21.67° C | 40% | 1025.7 hPa | 0 mm | - | - | - |
| 1777722866 | 21.11° C | 39% | 1025.6 hPa | 0 mm | - | - | - |
* Rain since midnight (hover to see other rain measurements)
** Current wind speed in m/s (hover to see current wind gust speed)